Wetterdaten: Montag, 01.06.2015
Datum Zeit Temp. A. Feuchte A. Luftdruck Regen Wind Richtung Richtung Sonnenschein ET UV Solar Taupunkt Windchill Windben Empfang
01.06.2015 00:00 14,6 C 87 % 1015,1 hPa 0,0 l/m 0,0 km/h (0 Bft) S-SW 200 0 min 0,000 mm 0,0 UV-I 0 W/m 12,5 C 14,6 C 0,0 km/h (0 Bft) 0,00 %
01.06.2015 01:00 14,2 C 93 % 1015,5 hPa 0,0 l/m 0,0 km/h (0 Bft) S-SW 210 0 min 0,000 mm 0,0 UV-I 0 W/m 13,1 C 14,2 C 0,0 km/h (0 Bft) 0,00 %
01.06.2015 02:00 13,7 C 95 % 1015,5 hPa 0,0 l/m 0,0 km/h (0 Bft) W-SW 250 0 min 0,000 mm 0,0 UV-I 0 W/m 12,9 C 13,7 C 0,0 km/h (0 Bft) 0,00 %
01.06.2015 03:00 13,6 C 96 % 1015,6 hPa 0,3 l/m 0,0 km/h (0 Bft) S 180 0 min 0,000 mm 0,0 UV-I 0 W/m 13,0 C 13,6 C 0,0 km/h (0 Bft) 0,00 %
01.06.2015 04:00 12,5 C 97 % 1015,7 hPa 0,0 l/m 0,0 km/h (0 Bft) S 180 0 min 0,000 mm 0,0 UV-I 0 W/m 12,0 C 12,5 C 0,0 km/h (0 Bft) 0,00 %
01.06.2015 05:00 12,0 C 97 % 1015,8 hPa 0,0 l/m 0,0 km/h (0 Bft) S 180 0 min 0,000 mm 0,0 UV-I 0 W/m 11,5 C 12,0 C 0,0 km/h (0 Bft) 0,00 %
01.06.2015 06:00 12,2 C 97 % 1016,1 hPa 0,0 l/m 0,0 km/h (0 Bft) S 180 0 min 0,000 mm 0,0 UV-I 60 W/m 11,7 C 12,2 C 0,0 km/h (0 Bft) 0,00 %
01.06.2015 07:00 15,5 C 90 % 1016,0 hPa 0,0 l/m 0,0 km/h (0 Bft) S 180 60 min 0,000 mm 1,0 UV-I 339 W/m 13,9 C 15,5 C 0,0 km/h (0 Bft) 0,00 %
01.06.2015 08:00 16,9 C 79 % 1016,1 hPa 0,0 l/m 0,0 km/h (0 Bft) SW 220 60 min 0,000 mm 2,0 UV-I 508 W/m 13,2 C 16,9 C 0,0 km/h (0 Bft) 0,00 %
01.06.2015 09:00 19,3 C 72 % 1016,1 hPa 0,0 l/m 0,0 km/h (0 Bft) N-NO 30 60 min 0,000 mm 3,0 UV-I 635 W/m 14,1 C 19,3 C 0,0 km/h (0 Bft) 0,00 %
01.06.2015 10:00 20,8 C 63 % 1015,8 hPa 0,0 l/m 1,4 km/h (1 Bft) N-NW 340 60 min 0,000 mm 5,0 UV-I 732 W/m 13,5 C 20,8 C 4,0 km/h (1 Bft) 0,00 %
01.06.2015 11:00 22,8 C 60 % 1015,5 hPa 0,0 l/m 0,0 km/h (0 Bft) O 90 60 min 0,000 mm 4,0 UV-I 572 W/m 14,6 C 22,8 C 0,0 km/h (0 Bft) 0,00 %
01.06.2015 12:00 23,1 C 59 % 1015,2 hPa 0,0 l/m 0,0 km/h (0 Bft) NW 310 60 min 0,000 mm 5,0 UV-I 674 W/m 14,6 C 23,1 C 0,0 km/h (0 Bft) 0,00 %
01.06.2015 13:00 24,0 C 51 % 1014,3 hPa 0,0 l/m 0,0 km/h (0 Bft) SW 230 60 min 0,000 mm 5,0 UV-I 881 W/m 13,2 C 24,0 C 0,0 km/h (0 Bft) 0,00 %
01.06.2015 14:00 25,1 C 40 % 1013,5 hPa 0,0 l/m 0,0 km/h (0 Bft) SW 230 60 min 0,000 mm 4,0 UV-I 746 W/m 10,5 C 25,1 C 0,0 km/h (0 Bft) 0,00 %
01.06.2015 15:00 25,2 C 40 % 1013,1 hPa 0,0 l/m 0,0 km/h (0 Bft) S 180 60 min 0,000 mm 3,0 UV-I 622 W/m 10,6 C 25,2 C 0,0 km/h (0 Bft) 0,00 %
01.06.2015 16:00 26,1 C 43 % 1012,7 hPa 0,0 l/m 0,3 km/h (0 Bft) O-SO 110 60 min 0,000 mm 2,0 UV-I 467 W/m 12,5 C 26,1 C 4,0 km/h (1 Bft) 0,00 %
01.06.2015 17:00 24,9 C 45 % 1012,4 hPa 0,0 l/m 0,3 km/h (0 Bft) NO 50 60 min 0,000 mm 1,0 UV-I 417 W/m 12,1 C 24,9 C 4,0 km/h (1 Bft) 0,00 %
01.06.2015 18:00 24,6 C 45 % 1012,5 hPa 0,0 l/m 1,8 km/h (1 Bft) O 90 60 min 0,000 mm 1,0 UV-I 450 W/m 11,9 C 24,6 C 4,0 km/h (1 Bft) 0,00 %
01.06.2015 19:00 24,3 C 45 % 1011,9 hPa 0,0 l/m 4,0 km/h (1 Bft) SO 140 60 min 0,000 mm 0,0 UV-I 226 W/m 11,6 C 24,3 C 4,0 km/h (1 Bft) 0,00 %
01.06.2015 20:00 23,9 C 47 % 1011,9 hPa 0,0 l/m 1,8 km/h (1 Bft) O 90 0 min 0,000 mm 0,0 UV-I 0 W/m 11,9 C 23,9 C 4,0 km/h (1 Bft) 0,00 %
01.06.2015 21:00 20,3 C 62 % 1012,5 hPa 0,0 l/m 0,0 km/h (0 Bft) O-SO 120 0 min 0,000 mm 0,0 UV-I 0 W/m 12,8 C 20,3 C 0,0 km/h (0 Bft) 0,00 %
01.06.2015 22:00 18,6 C 67 % 1013,3 hPa 0,0 l/m 0,0 km/h (0 Bft) S-SO 160 0 min 0,000 mm 0,0 UV-I 0 W/m 12,3 C 18,6 C 0,0 km/h (0 Bft) 0,00 %
01.06.2015 23:00 18,4 C 68 % 1015,1 hPa 0,0 l/m 4,7 km/h (1 Bft) SW 230 0 min 0,000 mm 0,0 UV-I 0 W/m 12,4 C 18,4 C 7,9 km/h (2 Bft) 0,00 %
_ Min-Zeit 05:00 14:00 19:00 - 00:00 - - - - - - 14:00 05:00 00:00 00:00
Minimum _ 12,0 C 40 % 1011,9 hPa - 0,0 km/h (0 Bft) - - - - - - 10,5 C 12,0 C 0,0 km/h (0 Bft) 0,00 %
_ Max-Zeit 16:00 04:00 06:00 03:00 23:00 - - 07:00 00:00 10:00 13:00 12:00 16:00 23:00 00:00
Maximum _ 26,1 C 97 % 1016,1 hPa 0,3 l/m 4,7 km/h
SW (1 Bft)
- - 60 min 0,000 mm 5,0 UV-I 881 W/m 14,6 C 26,1 C 7,9 km/h
SW (2 Bft)
0,00 %
Durchschnitt _ 19,6 C 67 % 1014,4 hPa #0,3 l/m 0,6 km/h (0 Bft) O - #13:00 h #0,000 mm 3,0 UV-I 524 W/m 12,6 C 19,6 C 1,4 km/h (1 Bft) 0,00 %